Weather History for Avalon, CA

Change the Weather History Date:

Saturday, February 16, 2013

  Actual Average Record
Temperature  
Mean Temperature 66 °F -  
Max Temperature 73 °F 54 °F 73 °F (2007)
Min Temperature 57 °F 47 °F 42 °F (2008)
Cooling Degree Days 2    
Growing Degree Days 16 (Base 50)    
Moisture  
Dew Point 15 °F    
Average Humidity 14    
Maximum Humidity 20    
Minimum Humidity 12    
Precipitation  
Precipitation 0.00 in - - ()
Sea Level Pressure  
Sea Level Pressure 30.06 in    
Wind  
Wind Speed 9 mph (SSE)    
Max Wind Speed 12 mph    
Max Gust Speed -    
Visibility 10 miles    
Events      
Averages and records for this station are not official NWS values.
T = Trace of Precipitation, MM = Missing Value Source: NWS Daily Summary

Daily Weather History Graph

Daily Weather History Graph

Search for Another Location

Airport:

Trip Planner

Search our weather history database for the weather conditions in past years. The results will help you decide how hot, cold, wet, or windy it might be!

Date:

Astronomy

Feb. 16, 2013 Rise Set
Actual Time 6:36 AM PST 5:39 PM PST
Civil Twilight 6:10 AM PST 6:04 PM PST
Nautical Twilight 5:41 AM PST 6:34 PM PST
Astronomical Twilight 5:12 AM PST 7:02 PM PST
Moon 10:14 AM PST (2/16) No Moon Set
Length of Visible Light 11h 54m
Length of Day
11h 03m
Waxing Crescent, 40% of the Moon is Illuminated
Feb 16
Waxing Crescent
Feb 17
First Quarter
Feb 25
Full
Mar 4
Last Quarter
Mar 11
New

Hourly Weather History & Observations

Time (PST) Temp. Dew Point Humidity Pressure Visibility Wind Dir Wind Speed Gust Speed Precip Events Conditions
12:51 AM 64.9 °F 15.1 °F 15% 30.13 in 10.0 mi ESE 8.1 mph - N/A   Clear
1:51 AM 64.9 °F 12.0 °F 13% 30.12 in 10.0 mi East 6.9 mph - N/A   Clear
2:51 AM 64.9 °F 12.0 °F 13% 30.11 in 10.0 mi East 9.2 mph - N/A   Clear
3:51 AM 64.9 °F 10.0 °F 12% 30.09 in 10.0 mi East 11.5 mph - N/A   Clear
4:51 AM 64.9 °F 10.0 °F 12% 30.10 in 10.0 mi ESE 11.5 mph - N/A   Clear
5:51 AM 64.9 °F 10.0 °F 12% 30.10 in 10.0 mi ESE 10.4 mph - N/A   Clear
6:51 AM 64.0 °F 10.9 °F 13% 30.12 in 10.0 mi ESE 10.4 mph - N/A   Clear
7:51 AM 66.9 °F 12.9 °F 12% 30.12 in 10.0 mi ESE 9.2 mph - N/A   Clear
8:51 AM 68.0 °F 17.1 °F 14% 30.13 in 10.0 mi SE 10.4 mph - N/A   Clear
9:51 AM 69.1 °F 16.0 °F 13% 30.14 in 10.0 mi SE 10.4 mph - N/A   Clear
10:51 AM 71.1 °F 21.9 °F 16% 30.12 in 10.0 mi ESE 5.8 mph - N/A   Clear
11:51 AM 73.0 °F 19.0 °F 13% 30.09 in 10.0 mi SE 8.1 mph - N/A   Clear
12:51 PM 71.1 °F 23.0 °F 16% 30.06 in 10.0 mi North 3.5 mph - N/A   Clear
1:51 PM 70.0 °F 19.9 °F 15% 30.04 in 10.0 mi West 6.9 mph - N/A   Clear
2:51 PM 69.1 °F 19.0 °F 15% 30.02 in 10.0 mi West 8.1 mph - N/A   Clear
4:51 PM 66.0 °F 16.0 °F 15% 30.00 in 10.0 mi WSW 6.9 mph - N/A   Clear
5:51 PM 64.0 °F 12.9 °F 14% 29.99 in 10.0 mi WSW 9.2 mph - N/A   Clear
6:51 PM 63.0 °F 12.0 °F 14% 29.99 in 10.0 mi WNW 8.1 mph - N/A   Clear
7:51 PM 62.1 °F 12.9 °F 15% 29.99 in 10.0 mi NW 6.9 mph - N/A   Clear
8:51 PM 62.1 °F 12.0 °F 14% 29.99 in 10.0 mi WNW 8.1 mph - N/A   Clear
9:51 PM 62.1 °F 10.9 °F 13% 29.99 in 10.0 mi West 8.1 mph - N/A   Clear
10:51 PM 60.1 °F 14.0 °F 16% 29.97 in 10.0 mi SW 6.9 mph - N/A   Clear
11:51 PM 57.9 °F 17.1 °F 20% 29.97 in 10.0 mi WSW 8.1 mph - N/A   Clear